Showing default

YUNYAO-1 44, 63345

Orbit data source: Space-Track

YUNYAO-1 44, 63345 is a payload satellite owned by Yunyao yuhang (CN) in SSO that was launched on Fri, 21 Mar 2025 UTC via a GUSHENXING 1 launch vehicle from the Jiuquan Satellite Launch Center, China (JSC). Payload-class satellites include a variety of spacecraft equipped with specific instruments for various scientific and technological missions. These include communications satellites like Starlink; space stations such as the ISS; scientific satellites like the Hubble; Earth observation satellites from companies like Planet Labs, Umbra, and HawkEye 360; GPS; miniature CubeSats for education and research; and military/defense satellites.

Loading next visibility...
Identifier
63345, 2025-059B
Orbit
SSO
Country
Flag of CNCN / PRC
Related business
Manufacturer
Changguang WJ
Mission
Operational Commercial Meteo Radio Occ.
Bus & Motor
YY-1, Unknown motor
Mass
~50 kg wet, ~50 kg dry
Launch date (UTC)
2025-03-21 (9 months ago)
Launch vehicle
GUSHENXING 1
Launch site
Jiuquan Satellite Launch Center, China (JSC)
Object type
Payload
Rocket body
Debris
Shape & HBR
Box + 1 Pan, 0.5 m
Radar Cross Section
5.339 m², Medium (>0.1 m² and < 1m²)

Expand to show TLE details & history
Last TLE update: 8 hours ago

TLE from 8 hours ago
0 YUNYAO-1 44
1 63345U 25059B   25352.93584160  .00002796  00000-0  17779-3 0  9993
2 63345  97.5996 170.4671 0018718  57.8629 302.4413 15.09508322 41092
Epoch: 2025-12-18T22:27Z
TLE epoch observation values (Epoch: 2025-12-18T22:27:36.714Z)
Latitude
-0.00001°
Longitude
105.77992°
Altitude
533.843 km
Speed
7.6 km/s
True Right ascension
11h 21m 52s
True Declination
0° 00' 00"
Sunlit
Object was in daylight at epoch
Visualization orbit readout
Latitude
Unknown
Longitude
Unknown
Altitude
Unknown
Speed
Unknown
Apparent Right ascension
Unknown
Apparent Declination
Unknown
Sunlit
N/A
Visualization observer readout
Local Sidereal Time
05:27:05
Azimuth
Unknown
Elevation
Unknown
Doppler factor
Unknown
Orbital elements
Apogee altitude
547.629 km
Perigee altitude
521.75 km
Semi-major axis
6,912.827 km
Eccentricity
0.00187
Inclination
97.5996°
RAAN
170.4671°
Arg. of periapsis
57.8629°
True anomaly
302.26005°
Mean anomaly
302.4413°
Eccentric anomaly
302.3507°
Mean motion
3.77624 °/min
Orbital period
95.33 mins
BSTAR
0.00017779
Loading maneuver chart data...
Computing Atmospheric mass density...
Loading historical data...
Loading historical data...
Loading historical data...
Loading historical data...
Loading historical data...
Loading historical data...
Loading historical data...
Other satellites on launch #59 in the year 2025 (2025-03-21 UTC)

Documentation

Showing up to 5 results
|